Weather History for Stanley, ID

Change the Weather History Date:

Wednesday, June 13, 2012

  Actual Average Record
Temperature  
Mean Temperature 49 °F 49 °F  
Max Temperature 64 °F 66 °F 80 °F (1992)
Min Temperature 34 °F 33 °F 22 °F (2005)
Degree Days  
Heating Degree Days 16 16  
Month to date heating degree days 237 222  
Since 1 June heating degree days 237 222  
Since 1 July heating degree days 10467 10564  
Cooling Degree Days 0 0  
Month to date cooling degree days 0 0  
Year to date cooling degree days 0 0  
Since 1 June cooling degree days 0 0  
Moisture  
Dew Point 31 °F    
Average Humidity 61    
Maximum Humidity 100    
Minimum Humidity 21    
Precipitation  
Precipitation 0.01 in 0.05 in 0.50 in (2000)
Month to date precipitation 0.88 0.67  
Year to date precipitation 14.41 9.20  
Sea Level Pressure  
Sea Level Pressure 29.83 in    
Wind  
Wind Speed 5 mph (WNW)    
Max Wind Speed 17 mph    
Max Gust Speed 31 mph    
T = Trace of Precipitation, MM = Missing Value Source: NWS Daily Summary

Daily Weather History Graph

Daily Weather History Graph

Search for Another Location

Airport:

Trip Planner

Search our weather history database for the weather conditions in past years. The results will help you decide how hot, cold, wet, or windy it might be!

Date:

Astronomy

Jun. 13, 2012 Rise Set
Actual Time 5:55 AM MDT 9:24 PM MDT
Civil Twilight 5:19 AM MDT 10:00 PM MDT
Nautical Twilight 4:31 AM MDT 10:48 PM MDT
Astronomical Twilight 3:30 AM MDT 11:50 PM MDT
Moon 2:20 AM MDT (6/13) 4:06 PM MDT (6/13)
Length of Visible Light 16h 41m
Length of Day
15h 28m
Waning Crescent, 28% of the Moon is Illuminated
Jun 13
Waning Crescent
Jun 19
New
Jun 26
First Quarter
Jul 3
Full
Jul 10
Last Quarter

Hourly Weather History & Observations

Time (MDT) Temp. Windchill Dew Point Humidity Pressure Visibility Wind Dir Wind Speed Gust Speed Precip Events Conditions
12:51 AM 53.1 °F - 41.0 °F 64% 29.81 in - NW 6.9 mph - N/A   Unknown
1:51 AM 46.9 °F - 44.1 °F 90% 29.83 in - WSW 4.6 mph - 0.03 in   Unknown
2:51 AM 46.9 °F - 41.0 °F 80% 29.83 in - Calm Calm - N/A   Unknown
3:51 AM 42.1 °F 39.2 °F 39.0 °F 89% 29.82 in - SSE 4.6 mph - N/A   Unknown
4:51 AM 39.0 °F 36.8 °F 37.0 °F 93% 29.83 in - SW 3.5 mph - N/A   Unknown
5:51 AM 36.0 °F - 35.1 °F 97% 29.86 in - Calm Calm - N/A   Unknown
6:51 AM 37.9 °F - 37.0 °F 97% 29.84 in - Calm Calm - N/A   Unknown
7:51 AM 45.0 °F - 41.0 °F 86% 29.82 in - Calm Calm - N/A   Unknown
8:51 AM 48.9 °F - 42.1 °F 77% 29.83 in - Variable 3.5 mph - N/A   Unknown
9:51 AM 54.0 °F - 39.0 °F 57% 29.82 in - North 3.5 mph - N/A   Unknown
10:51 AM 59.0 °F - 35.1 °F 41% 29.79 in - Calm Calm - N/A   Unknown
11:51 AM 60.1 °F - 24.1 °F 25% 29.79 in - NW 8.1 mph - N/A   Unknown
12:51 PM 61.0 °F - 25.0 °F 25% 29.79 in - WSW 8.1 mph 16.1 mph N/A   Unknown
1:51 PM 62.1 °F - 25.0 °F 24% 29.81 in - Variable 5.8 mph 24.2 mph N/A   Unknown
2:51 PM 62.1 °F - 24.1 °F 23% 29.81 in - WNW 13.8 mph 24.2 mph N/A   Unknown
3:51 PM 64.0 °F - 25.0 °F 23% 29.82 in - NNW 11.5 mph 26.5 mph N/A   Unknown
4:51 PM 63.0 °F - 25.0 °F 24% 29.83 in - WNW 10.4 mph 25.3 mph N/A   Unknown
5:51 PM 62.1 °F - 26.1 °F 25% 29.85 in - WNW 6.9 mph 21.9 mph N/A   Unknown
6:51 PM 61.0 °F - 25.0 °F 25% 29.85 in - West 11.5 mph 18.4 mph N/A   Unknown
7:51 PM 59.0 °F - 19.0 °F 21% 29.84 in - NNW 9.2 mph 18.4 mph N/A   Unknown
8:51 PM 54.0 °F - 21.9 °F 29% 29.86 in - NW 5.8 mph - N/A   Unknown
9:51 PM 45.0 °F 43.5 °F 23.0 °F 42% 29.88 in - South 3.5 mph - N/A   Unknown
10:51 PM 41.0 °F - 24.1 °F 51% 29.90 in - Calm Calm - N/A   Unknown
11:51 PM 37.0 °F 33.3 °F 26.1 °F 65% 29.92 in - SSE 4.6 mph - N/A   Unknown